#timestamp,LO_Frequency,Hit,StdDev 
1557194415.8,286046997.6,N
1557194435.6,286046999.6,N
1557194455.4,286046997.6,N
1557194475.3,286046997.3,N
1557194495.1,286046996.9,N
1557194515.9,286046998.4,N
1557194535.7,286046997.0,N
1557194555.5,286046996.5,N
1557194575.4,286046997.5,N
1557194595.2,286046998.0,N
1557194615.0,286046997.8,N
1557194615.9,286046997.8,N
1557194635.8,286046998.5,N
1557194655.6,286046997.4,N
1557194675.5,286046997.7,N
1557194695.3,286046993.4,Y
1557194715.1,286046995.2,P
1557194735.9,286046996.9,N
1557194755.7,286046998.6,N
1557194775.5,286047002.8,N
1557194795.4,286047000.7,N
1557194815.2,286047000.2,N
1557194835.1,286046999.6,N
1557194855.1,286046999.3,N
1557194875.8,286046999.5,N
1557194895.7,286046998.7,N
1557194915.5,286046999.9,N
1557194935.4,286047002.3,N
1557194955.2,286047000.2,N
1557194975.0,286047002.8,N
1557194975.9,286047002.8,N
1557194995.8,286047000.0,N
1557195015.6,286047002.3,N
1557195035.5,286047002.6,N
1557195055.3,286047004.0,N
1557195075.1,286047002.4,N
1557195095.9,286046999.9,N
1557195115.7,286046998.4,N
1557195135.5,286046998.2,N
1557195155.4,286047002.4,N
1557195175.2,286047000.2,N
1557195195.1,286047000.1,N
1557195196.0,286047000.1,N
1557195215.8,286046999.8,N
1557195235.6,286047000.5,N
1557195255.5,286047002.5,N
1557195275.3,286047001.9,N
1557195295.1,286047002.1,N
1557195315.9,286047002.8,N
1557195335.7,286047005.0,Y
1557195355.6,286047001.3,P
1557195375.4,286047002.8,P
1557195395.2,286046998.2,N
1557195415.1,286047000.7,N
1557195416.0,286047000.7,N
1557195435.8,286047003.8,N
1557195455.7,286047004.4,N
1557195475.5,286046999.7,N
1557195495.3,286046998.7,N
1557195515.2,286046998.5,N
1557195535.0,286046998.6,N
1557195535.9,286046998.6,N
1557195555.8,286046996.7,N
1557195575.6,286046996.9,N
1557195595.4,286046999.1,N
1557195615.3,286046998.8,N
1557195635.1,286046998.5,N
1557195655.9,286046998.1,N
1557195675.7,286046999.7,N
1557195695.5,286047002.1,N
1557195715.4,286047002.3,N
1557195735.2,286047004.0,N
1557195755.0,286047003.8,N
1557195755.9,286047003.8,N
1557195775.8,286047003.1,N
1557195795.6,286047003.5,N
1557195815.5,286047004.4,N
1557195835.3,286047002.0,N
1557195855.1,286047004.2,N
1557195875.9,286047002.1,N
1557195895.7,286047001.8,N
1557195915.5,286047003.9,N
1557195935.4,286047006.3,N
1557195955.2,286047004.5,N
1557195975.1,286047007.4,N
1557195976.0,286047007.4,N
1557195995.8,286047007.5,N
1557196015.6,286047003.4,N
1557196035.5,286047004.3,N
1557196055.3,286047002.3,N
1557196075.1,286047001.8,N
1557196095.9,286047005.6,N
1557196115.7,286047001.7,N
1557196135.6,286047004.1,N
1557196155.4,286047002.9,N
1557196175.2,286047003.5,N
1557196195.1,286047005.3,N
1557196196.0,286047005.3,N
1557196215.8,286047007.2,Y
1557196235.7,286047002.8,P
1557196255.5,286047002.8,P
1557196275.3,286047002.5,P
1557196295.2,286047002.8,Y
1557196315.0,286046997.9,P
1557196315.9,286046997.9,N
1557196335.8,286046993.3,N
1557196355.6,286046995.1,N
1557196375.4,286046995.9,N
1557196395.3,286046995.6,N
1557196415.1,286046993.8,N
1557196435.8,286046995.9,N
1557196455.7,286046995.5,N
1557196475.5,286046995.0,N
1557196495.3,286046995.3,N
1557196515.2,286046998.5,N
1557196535.0,286046999.3,N
1557196535.9,286046999.3,N
1557196555.8,286046995.0,N
1557196575.6,286046995.6,N
1557196595.4,286046995.3,N
1557196615.3,286046993.6,N
1557196635.1,286046994.8,N
1557196655.8,286046991.7,Y
1557196675.7,286046994.9,P
1557196695.5,286046995.4,P
1557196715.4,286046997.3,P
1557196735.2,286046995.5,Y
1557196755.0,286047000.0,P
1557196755.9,286047000.0,N
1557196775.8,286047000.6,N
1557196795.6,286047001.2,N
1557196815.5,286047000.9,N
1557196835.3,286047000.3,N
1557196855.1,286047000.6,N
1557196875.9,286047002.8,N
1557196895.7,286047002.8,N
1557196915.5,286047000.9,N
1557196935.4,286046999.9,N
1557196955.2,286046998.4,N
1557196975.1,286046998.3,N
1557196976.0,286046998.3,N
1557196995.8,286046998.2,N
1557197015.6,286046998.8,N
1557197035.5,286047000.5,N
1557197055.3,286047000.3,N
1557197075.2,286046999.7,N
1557197095.0,286047003.7,N
1557197095.9,286047003.7,N
1557197115.7,286047000.9,N
1557197135.6,286047002.7,N
1557197155.4,286047000.3,N
1557197175.3,286046998.1,N
1557197195.1,286046998.8,N
1557197196.0,286046998.8,N
1557197215.8,286046999.1,N
1557197235.7,286046996.5,N
1557197255.5,286046997.0,N
1557197275.3,286047002.0,N
1557197295.2,286046999.8,N
1557197315.0,286047000.0,N
1557197315.9,286047000.0,N
1557197335.8,286047000.5,N
1557197355.6,286046997.2,N
1557197375.5,286046995.4,N
1557197395.3,286046997.1,N
1557197415.1,286046996.7,N
1557197435.9,286046995.3,N
1557197455.7,286046997.5,N
1557197475.5,286046995.0,N
1557197495.4,286046995.1,N
1557197515.2,286046994.9,N
1557197535.1,286046994.9,N
1557197536.0,286046994.9,N
1557197555.8,286046997.4,N
1557197575.6,286046997.3,N
1557197595.5,286046998.7,N
1557197615.3,286046998.7,N
1557197635.2,286047000.3,N
1557197655.9,286046999.9,N
1557197675.7,286047005.6,N
1557197695.6,286047003.9,N
1557197715.4,286047000.4,N
1557197735.2,286046998.3,N
1557197755.1,286047000.0,N
1557197756.0,286047000.0,N
1557197775.8,286046998.5,N
1557197795.7,286046995.1,N
1557197815.5,286046995.7,N
1557197835.3,286046997.7,N
1557197855.2,286046994.9,N
1557197875.9,286046997.9,N
1557197895.7,286046999.5,N
1557197915.6,286046997.2,N
1557197935.4,286046999.5,N
1557197955.2,286046999.4,N
1557197975.1,286046996.6,N
1557197976.0,286046996.6,N
1557197995.8,286047000.8,N
